Location: Home
(42.5358°N, 72.7383°W)
Time: 13:53:30
(UTC-05:00)

Courier 1B - All Passes

Search period start: 30 November 2021 00:00
Search period end: 10 December 2021 00:00
Orbit: 962 x 1209 km, 28.3° (Epoch: 30 November)

Date Brightness Start Highest point End Pass type
(mag) Time Alt. Az. Time Alt. Az. Time Alt. Az.
30 Nov - 17:33:41 10° SSW 17:38:24 19° SSE 17:42:58 10° SE visible
30 Nov - 19:26:08 10° SW 19:31:32 24° S 19:36:43 10° SE visible
30 Nov - 21:20:05 10° WSW 21:24:34 19° SSW 21:28:56 10° SSE visible
01 Dec - 16:40:34 10° SSW 16:44:50 16° SSE 16:48:58 10° SE visible
01 Dec - 18:32:27 10° SW 18:37:57 24° S 18:43:13 10° SE visible
01 Dec - 20:26:03 10° WSW 20:31:03 21° S 20:35:53 10° SE visible
01 Dec - 22:22:21 10° SW 22:23:55 11° SSW 22:25:27 10° S night (unlit)
02 Dec - 15:47:47 10° S 15:51:14 14° SSE 15:54:38 10° SE daylight
02 Dec - 17:38:51 10° SW 17:44:21 23° S 17:49:38 10° ESE visible
02 Dec - 19:32:08 10° WSW 19:37:31 23° S 19:42:41 10° SE visible
02 Dec - 21:27:07 10° SW 21:30:27 14° SSW 21:33:44 10° S visible
03 Dec - 14:55:51 10° S 14:57:40 11° SSE 14:59:27 10° SE daylight
03 Dec - 16:45:21 10° SW 16:50:44 22° SSE 16:55:55 10° ESE visible
03 Dec - 18:38:16 10° SW 18:43:56 25° S 18:49:21 10° SE visible
03 Dec - 20:32:39 10° WSW 20:36:59 17° SSW 20:41:10 10° SSE visible
04 Dec - 15:52:01 10° SSW 15:57:07 19° SSE 16:02:03 10° ESE daylight
04 Dec - 17:44:29 10° SW 17:50:20 26° S 17:55:55 10° SE visible
04 Dec - 19:38:27 10° WSW 19:43:27 21° SSW 19:48:17 10° SSE visible
05 Dec - 14:58:54 10° SSW 15:03:29 17° SSE 15:07:58 10° ESE daylight
05 Dec - 16:50:46 10° SW 16:56:42 25° S 17:02:22 10° ESE visible
05 Dec - 18:44:23 10° WSW 18:49:54 23° S 18:55:10 10° SE visible
05 Dec - 20:40:08 10° SW 20:42:49 12° SSW 20:45:28 10° S visible
06 Dec - 14:06:09 10° S 14:09:52 14° SSE 14:13:30 10° SE daylight
06 Dec - 15:57:09 10° SW 16:03:01 24° S 16:08:41 10° ESE daylight
06 Dec - 17:50:25 10° WSW 17:56:17 25° S 18:01:54 10° SE visible
06 Dec - 19:45:15 10° SW 19:49:20 16° SSW 19:53:17 10° SSE visible
07 Dec - 13:14:21 10° SSE 13:16:15 11° SSE 13:18:08 10° SE daylight
07 Dec - 15:03:40 10° SW 15:09:21 22° SSE 15:14:53 10° ESE daylight
07 Dec - 16:56:32 10° SW 17:02:38 27° S 17:08:29 10° SE visible
07 Dec - 18:50:51 10° WSW 18:55:47 19° SSW 19:00:33 10° SSE visible
08 Dec - 14:10:23 10° SSW 14:15:41 20° SSE 14:20:53 10° ESE daylight
08 Dec - 16:02:44 10° SW 16:08:57 27° S 16:14:58 10° SE daylight
08 Dec - 17:56:39 10° WSW 18:02:12 22° SSW 18:07:32 10° SE visible
08 Dec - 19:53:40 10° SW 19:55:07 11° SSW 19:56:33 10° SSW visible
09 Dec - 13:17:21 10° SSW 13:22:02 17° SSE 13:26:39 10° ESE daylight
09 Dec - 15:09:03 10° SW 15:15:15 26° S 15:21:18 10° ESE daylight
09 Dec - 17:02:36 10° WSW 17:08:34 25° S 17:14:19 10° SE visible
09 Dec - 18:57:57 10° SW 19:01:37 14° SSW 19:05:09 10° S visible
